Location: Unspecified
(0.0000°N, 0.0000°E)
Time: 16:34:00
(UTC+00:00)

N. Korean satellite - Pass Details

Date: 22 September 2020
Orbit: 455 x 503 km, 97.2° (Epoch: 19 September)

Event Time Altitude Azimuth Distance (km) Brightness Sun altitude
Rises 05:15:00 0° 7° (N) 2,531 10.3 -9.4°
Reaches altitude 10° 05:17:04 10° 5° (N) 1,647 9.3 -8.9°
Maximum altitude 05:20:36 70° 281° (W) 508 6.4 -8.0°
Drops below altitude 10° 05:24:04 10° 197° (SSW) 1,628 9.1 -7.1°
Sets 05:26:07 0° 195° (SSW) 2,499 10.0 -6.6°
